Regional Weather Roundup
Issued by NWS

Home | Current Version | Previous Version | Graphics & Text | Print | Product List | Glossary On
Versions: 1 2 3 4 5 6 7 8 9 10 11 12 13 14 15 16 17 18 19 20 21 22 23 24 25 26 27 28 29 30 31 32 33 34 35 36 37 38 39 40 41 42 43 44 45 46 47 48 49 50
248
ASUS43 KOAX 101010
RWRNE

WEATHER ROUNDUP FOR NEBRASKA
NATIONAL WEATHER SERVICE OMAHA NE
400 AM CST SAT DEC 10 2016

NOTES: SATELLITE DATA IS BEING USED TO AUGMENT CLOUD COVER ABOVE
       12000 FEET.
       "FAIR" INDICATES FEW OR NO CLOUDS BELOW 12,000 FEET WITH NO
       SIGNIFICANT WEATHER AND/OR OBSTRUCTIONS TO VISIBILITY.

  * THESE STATIONS DO NOT REPORT WEATHER SUCH AS RAIN...SNOW OR FOG.

NEZ001>004-019>022-054>056-101100-
NEBRASKA PANHANDLE

CITY           SKY/WX    TMP DP  RH WIND       PRES   REMARKS
SCOTTSBLUFF    CLEAR     14   8  77 E15       30.02F WCI  -1
ALLIANCE       CLOUDY    10   7  87 SE8       30.05F WCI  -2
CHADRON        CLOUDY     7   2  80 N6        30.12F WCI  -3
KIMBALL        CLOUDY    19  16  88 SE6       30.01S WCI  11
SIDNEY         CLOUDY    19  16  88 SE6       30.05F WCI  11
$$

NEZ057>060-069>072-079>082-101100-
SOUTHWEST NEBRASKA

CITY           SKY/WX    TMP DP  RH WIND       PRES   REMARKS
NORTH PLATTE   CLOUDY    18  12  77 E9        30.19F WCI   7
IMPERIAL       CLOUDY    19  14  81 E6        30.12F WCI  11
LEXINGTON      CLOUDY    19  14  78 E8        30.25F WCI   9
MCCOOK         CLOUDY    19  14  81 E7        30.20F WCI  10
OGALLALA       CLOUDY    19  14  84 E8        30.14F WCI   8
$$

NEZ005>010-023>029-035>040-094-101100-
NORTH CENTRAL NEBRASKA

CITY           SKY/WX    TMP DP  RH WIND       PRES   REMARKS
VALENTINE      LGT SNOW   7   2  80 E8        30.26F VSB 3/4 WCI  -6
AINSWORTH      LGT SNOW   9   6  89 E8        30.27F WCI  -3
BROKEN BOW     CLOUDY    20  14  77 SE10      30.24F WCI   9
O`NEILL        LGT SNOW  11   8  88 E5        30.36F WCI   2
ORD            LGT SNOW  17  12  80 E6        30.32F WCI   9
THEDFORD       LGT SNOW  12   9  87 E9        30.22F WCI   0
$$

NEZ041-046>049-061>064-073>077-083>087-101100-
SOUTH CENTRAL NEBRASKA

CITY           SKY/WX    TMP DP  RH WIND       PRES   REMARKS
GRAND ISLAND   LGT SNOW  19  18  95 SE8       30.35F VSB 1   WCI   9
AURORA         LGT SNOW  20  16  81 SE5       30.37F WCI  14
HASTINGS       CLOUDY    20  14  77 SE8       30.34F WCI  10
HEBRON         CLOUDY    19  16  86 CALM      30.40F
HOLDREGE       CLOUDY    20  14  77 SE9       30.27F WCI   9
KEARNEY *      CLOUDY    19  12  73 SE7       30.31F WCI  10
YORK           CLOUDY    21  16  79 SE3       30.40F
$$

NEZ011>018-030>034-042>045-101100-
NORTHEAST NEBRASKA

CITY           SKY/WX    TMP DP  RH WIND       PRES   REMARKS
NORFOLK        CLOUDY    16  12  84 E6        30.40F WCI   7
ALBION         FLURRIES  18  14  83 E3        30.38F
BLAIR          CLOUDY    23  15  74 CALM      30.43S
FREMONT        CLOUDY    22  15  75 CALM      30.45S
TEKAMAH        CLOUDY    20  13  74 N6        30.46F WCI  12
WAYNE          CLOUDY    15  12  89 CALM      30.43F
$$

NEZ050>053-065>068-078-088>093-101100-
SOUTHEAST NEBRASKA

CITY           SKY/WX    TMP DP  RH WIND       PRES   REMARKS
LINCOLN        CLOUDY    23  17  78 CALM      30.46S
OMAHA EPPLEY   CLOUDY    23  13  65 SE3       30.47S
BEATRICE       CLOUDY    21  16  81 CALM      30.43R
FALLS CITY     CLOUDY    26  17  68 SE3       30.46S
NEBRASKA CITY  CLOUDY    24  12  61 CALM      30.45S
PLATTSMOUTH    CLOUDY    23  13  67 CALM      30.45S
$$

NEZ044-045-051>053-067-101100-
OMAHA AREA

CITY           SKY/WX    TMP DP  RH WIND       PRES   REMARKS
OMAHA EPPLEY   CLOUDY    23  13  65 SE3       30.47S
BLAIR          CLOUDY    23  15  74 CALM      30.43S
FREMONT        CLOUDY    22  15  75 CALM      30.45S
MILLARD        CLOUDY    25  16  69 CALM      30.47R
OFFUTT AFB     CLOUDY    23  16  75 E3        30.46S
PLATTSMOUTH    CLOUDY    23  13  67 CALM      30.45S
WAHOO          CLOUDY    22  16  78 CALM      30.45S
$$




USA.gov is the U.S. government's official web portal to all federal, state and local government web resources and services.